User: anonymous   Login
Location: Mentone
(34.5413°N, 85.5351°W)
Time: 10:55:09
(UTC-05:00)
Language:

NOSS 2-2 (E) - Orbit

View from above orbital plane
View from above orbital plane
View from above satellite
View from above satellite

Ground track
Ground track

The orbit data is extracted from the following two-line orbital elements,

1 21809U 91076E   16209.88843608 0.00000050  00000-0  18680-4 0    01
2 21809  63.3580 215.8654 0718000  18.9538 341.0462 13.41274718    06
Epoch (UTC): 27 July 2016 21:19:20
Eccentricity: 0.0718000
inclination: 63.3580°
perigee height: 567 km
apogee height: 1642 km
right ascension of ascending node: 215.8654°
argument of perigee: 18.9538°
revolutions per day: 13.41274718
mean anomaly at epoch: 341.0462°
orbit number at epoch: 0

The dashed part of the orbit path shows where the satellite is in the earth's shadow,  

DLR